2020-079E (46831 NORAD) Tracking and Keplerian Element Data

This shows tracking and keplerian element data for the satellite.

Feedback or suggestion? Click here.




ElementValue
Catalog46831
Name2020-079E
Epoch Orbit307
Epoch Day331.26078696
Epoch Year2020
RAAN43.0757
Inclination97.2663
Eccentricity0.0009449
Argument of Perigee176.2814
Mean Anonmoly269.7701
Mean Motion15.31258734
Decay Rate4.25E-05
L11 46831U 20079E 20331.26078696 .00004250 00000-0 14313-3 0 9999
L22 46831 97.2663 43.0757 0009449 176.2814 269.7701 15.31258734 3079

Live tracking and technical data element details for 2020-079E (NORAD 46831). 2020-079E can be tracked NOW for your location showing map with azimuth and elevation plus other details from your city location.

Track the satellite on the map from your city or location and see movement details for azimuth, elevation, latitude, longitude, range, height, and movement on the map or in text.







IsCatalogInMostPopularTable: catalog: 46831, numindb: 5
Update: records affected: 1



GetName: 46831 2020-079E

Hit Count: updated at: Thu, 26 Nov 2020 17:36:56 GMT